Date String (YYYY-MM-DD hh:mm:ss) UTC,Instrument flags,Ambient pressure (hPa),Sample flow (lpm),Bypass flow (lpm),Sample temperature (°C),Ambient temperature (°C),ASC tube jacket temperature (°C),LED temperature (°C),Box temperature (°C),Sample RH (%),Span deviation,Mass concentration (μg/m³),Mass concentration (μg/m³),Mass concentration (μg/m³)
DateTimeUTC,F1_M11,P_M11,Q1_M11,Q2_M11,T1_M11,T2_M11,T3_M11,T4_M11,T5_M11,U1_M11,ZSPAN_M11,X0_M11,X2_M11,X1_M11
2022-11-14 03:00:00,,0825.4,4.99,0.00,22.9,21.9,00.0,31.6,24.8,07.5,0000.0,0007.96,0003.87,0003.48
2022-11-14 03:01:00,,0825.4,5.00,0.00,22.9,21.8,00.0,31.6,24.8,07.4,0000.0,0008.29,0003.91,0003.49
2022-11-14 03:02:00,,0825.5,5.00,0.00,22.9,21.7,00.0,31.6,24.8,07.4,0000.0,0007.97,0003.93,0003.49
2022-11-14 03:03:00,,0825.4,5.01,0.00,22.8,21.6,00.0,31.6,24.7,07.4,0000.0,0008.03,0003.95,0003.49
2022-11-14 03:04:00,,0825.4,4.98,0.00,22.8,21.5,00.0,31.6,24.7,07.3,0000.0,0008.05,0003.96,0003.50
2022-11-14 03:05:00,,0825.5,5.01,0.00,22.8,21.4,00.0,31.6,24.7,07.4,0000.0,0008.54,0004.02,0003.51
2022-11-14 03:06:00,,0825.5,5.00,0.00,22.8,21.3,00.0,31.6,24.7,07.4,0000.0,0009.11,0004.05,0003.51
2022-11-14 03:07:00,,0825.4,4.99,0.00,22.8,21.3,00.0,31.6,24.7,07.4,0000.0,0010.02,0004.06,0003.50
2022-11-14 03:08:00,,0825.5,5.02,0.00,22.8,21.4,00.0,31.6,24.7,07.4,0000.0,0010.54,0004.06,0003.51
2022-11-14 03:09:00,,0825.5,5.00,0.00,22.8,21.4,00.0,31.6,24.7,07.4,0000.0,0010.74,0004.06,0003.50
2022-11-14 03:10:00,,0825.5,5.00,0.00,22.8,21.4,00.0,31.6,24.7,07.4,0000.0,0011.15,0004.08,0003.50
2022-11-14 03:11:00,,0825.5,5.00,0.00,22.8,21.4,00.0,31.6,24.7,07.3,0000.0,0010.61,0004.05,0003.49
2022-11-14 03:12:00,,0825.5,5.00,0.00,22.8,21.4,00.0,31.6,24.7,07.3,0000.0,0010.41,0004.05,0003.49
2022-11-14 03:13:00,,0825.6,5.00,0.00,22.8,21.4,00.0,31.6,24.7,07.4,0000.0,0010.81,0004.03,0003.50
2022-11-14 03:14:00,,0825.6,5.00,0.00,22.8,21.3,00.0,31.6,24.7,07.4,0000.0,0011.19,0004.02,0003.51
2022-11-14 03:15:00,,0825.6,5.01,0.00,22.8,21.3,00.0,31.6,24.7,07.4,0000.0,0011.55,0004.06,0003.51
2022-11-14 03:16:00,,0825.6,5.00,0.00,22.8,21.3,00.0,31.6,24.7,07.4,0000.0,0011.73,0004.06,0003.51
2022-11-14 03:17:00,,0825.6,5.00,0.00,22.8,21.3,00.0,31.6,24.6,07.4,0000.0,0011.26,0004.05,0003.51
2022-11-14 03:18:00,,0825.6,5.01,0.00,22.8,21.2,00.0,31.6,24.6,07.4,0000.0,0010.37,0004.07,0003.52
2022-11-14 03:19:00,,0825.6,4.99,0.00,22.7,21.1,00.0,31.6,24.6,07.4,0000.0,0010.04,0004.08,0003.51
2022-11-14 03:20:00,,0825.6,5.02,0.00,22.7,21.1,00.0,31.6,24.6,07.4,0000.0,0009.70,0004.07,0003.51
2022-11-14 03:21:00,,0825.6,5.00,0.00,22.7,21.1,00.0,31.6,24.5,07.5,0000.0,0009.79,0004.04,0003.52
2022-11-14 03:22:00,,0825.6,5.00,0.00,22.7,21.0,00.0,31.6,24.5,07.5,0000.0,0011.11,0004.09,0003.53
2022-11-14 03:23:00,,0825.6,5.00,0.00,22.7,21.0,00.0,31.6,24.5,07.5,0000.0,0010.89,0004.10,0003.53
2022-11-14 03:24:00,,0825.6,5.00,0.00,22.7,21.5,00.0,31.5,24.6,07.5,0000.0,0010.61,0004.13,0003.53
2022-11-14 03:25:00,,0825.7,5.00,0.00,22.8,22.2,00.0,31.5,24.8,07.4,0000.0,0010.52,0004.11,0003.53
2022-11-14 03:26:00,,0825.7,5.01,0.00,22.8,22.2,00.0,31.5,24.8,07.4,0000.0,0010.64,0004.07,0003.54
2022-11-14 03:27:00,,0825.7,4.98,0.00,22.8,22.0,00.0,31.6,24.8,07.4,0000.0,0010.76,0004.06,0003.55
2022-11-14 03:28:00,,0825.7,5.01,0.00,22.8,21.9,00.0,31.6,24.8,07.4,0000.0,0010.71,0004.05,0003.56
2022-11-14 03:29:00,,0825.7,5.00,0.00,22.8,21.7,00.0,31.6,24.7,07.4,0000.0,0010.58,0004.03,0003.57
2022-11-14 03:30:00,,0826.1,4.99,0.00,22.8,21.6,00.0,31.6,24.7,07.4,0000.0,0010.53,0004.03,0003.58
2022-11-14 03:31:00,,0826.0,5.01,0.00,22.8,21.5,00.0,31.6,24.7,07.5,0000.0,0011.27,0004.05,0003.59
2022-11-14 03:32:00,,0826.1,5.00,0.00,22.8,21.5,00.0,31.6,24.7,07.5,0000.0,0011.56,0004.09,0003.60
2022-11-14 03:33:00,,0825.9,5.01,0.00,22.8,21.4,00.0,31.6,24.7,07.5,0000.0,0010.99,0004.10,0003.60
2022-11-14 03:34:00,,0825.8,4.98,0.00,22.8,21.4,00.0,31.6,24.7,07.5,0000.0,0011.26,0004.09,0003.61
2022-11-14 03:35:00,,0825.8,5.00,0.00,22.8,21.3,00.0,31.6,24.7,07.4,0000.0,0011.27,0004.07,0003.61
2022-11-14 03:36:00,,0825.7,5.00,0.00,22.8,21.3,00.0,31.6,24.6,07.4,0000.0,0011.66,0004.14,0003.63
2022-11-14 03:37:00,,0825.8,5.01,0.00,22.8,21.3,00.0,31.6,24.6,07.4,0000.0,0011.63,0004.18,0003.63
2022-11-14 03:38:00,,0825.8,5.00,0.00,22.8,21.3,00.0,31.6,24.6,07.5,0000.0,0011.41,0004.19,0003.64
2022-11-14 03:39:00,,0825.8,4.98,0.00,22.8,21.3,00.0,31.6,24.6,07.5,0000.0,0012.29,0004.22,0003.64
2022-11-14 03:40:00,,0825.8,5.01,0.00,22.8,21.3,00.0,31.6,24.6,07.5,0000.0,0012.37,0004.25,0003.65
2022-11-14 03:41:00,,0825.8,5.00,0.00,22.7,21.2,00.0,31.6,24.6,07.5,0000.0,0012.67,0004.28,0003.66
2022-11-14 03:42:00,,0825.8,5.00,0.00,22.7,21.2,00.0,31.6,24.6,07.5,0000.0,0012.47,0004.31,0003.68
2022-11-14 03:43:00,,0825.9,5.01,0.00,22.7,21.2,00.0,31.6,24.6,07.6,0000.0,0012.37,0004.32,0003.68
2022-11-14 03:44:00,,0825.9,5.01,0.00,22.7,21.1,00.0,31.6,24.6,07.6,0000.0,0012.59,0004.34,0003.68
2022-11-14 03:45:00,,0826.0,4.99,0.00,22.7,21.1,00.0,31.6,24.5,07.6,0000.0,0012.30,0004.35,0003.68
2022-11-14 03:46:00,,0825.9,5.01,0.00,22.7,21.1,00.0,31.5,24.5,07.6,0000.0,0012.24,0004.40,0003.68
2022-11-14 03:47:00,,0825.9,5.00,0.00,22.7,21.1,00.0,31.5,24.5,07.6,0000.0,0011.77,0004.38,0003.66
2022-11-14 03:48:00,,0825.9,4.98,0.00,22.7,21.1,00.0,31.5,24.6,07.6,0000.0,0011.47,0004.40,0003.67
2022-11-14 03:49:00,,0825.9,5.02,0.00,22.7,21.1,00.0,31.5,24.5,07.6,0000.0,0011.41,0004.44,0003.68
2022-11-14 03:50:00,,0825.9,4.99,0.00,22.7,21.1,00.0,31.5,24.5,07.6,0000.0,0011.09,0004.44,0003.68
2022-11-14 03:51:00,,0825.9,4.99,0.00,22.7,21.1,00.0,31.5,24.5,07.6,0000.0,0011.53,0004.44,0003.68
2022-11-14 03:52:00,,0825.9,5.01,0.00,22.7,21.1,00.0,31.5,24.5,07.6,0000.0,0011.37,0004.43,0003.67
2022-11-14 03:53:00,,0826.0,5.00,0.00,22.7,21.2,00.0,31.5,24.5,07.6,0000.0,0011.10,0004.40,0003.66
2022-11-14 03:54:00,,0825.9,4.99,0.00,22.7,21.2,00.0,31.5,24.5,07.6,0000.0,0010.75,0004.41,0003.66
2022-11-14 03:55:00,,0825.9,5.02,0.00,22.7,21.2,00.0,31.5,24.5,07.6,0000.0,0010.31,0004.39,0003.67
2022-11-14 03:56:00,,0825.9,5.00,0.00,22.7,21.2,00.0,31.5,24.5,07.7,0000.0,0010.66,0004.41,0003.67
2022-11-14 03:57:00,,0826.0,4.98,0.00,22.7,21.2,00.0,31.5,24.5,07.6,0000.0,0011.07,0004.37,0003.67
2022-11-14 03:58:00,,0825.9,5.01,0.00,22.6,21.2,00.0,31.5,24.5,07.6,0000.0,0010.87,0004.38,0003.69
2022-11-14 03:59:00,,0826.0,4.98,0.00,22.6,21.1,00.0,31.5,24.5,07.6,0000.0,0011.09,0004.38,0003.68
